Location: Ballen
(56.0167°N, 10.1167°E)
Time: 02:16:18
(UTC+00:00)

Daily predictions for brighter satellites

Satellite Brightness Start Highest point End
(mag) Time Altitude Azimuth Time Altitude Azimuth Time Altitude Azimuth
CENTAUR R/B 4.4 02:14:21 31° SE 02:14:21 31° SE 02:18:22 10° SE
Cosmos 2227 Rocket 4.5 02:15:23 19° NE 02:15:23 19° NE 02:16:55 10° NE
Cosmos 2297 Rocket 4.0 02:48:42 24° NNE 02:48:42 24° NNE 02:50:54 10° NNE
Cosmos 2263 Rocket 3.6 03:01:26 33° ESE 03:01:51 33° ESE 03:06:54 10° NE
SJ 16-02 3.9 03:08:47 18° ESE 03:09:44 19° E 03:12:49 10° NE
Cosmos 2082 Rocket 4.1 03:16:03 20° N 03:16:37 20° NNE 03:20:47 10° ENE
Cosmos 1833 Rocket 4.4 03:26:31 23° N 03:27:43 25° NNE 03:32:18 10° E
ATLAS 3B R/B 2.6 03:30:35 88° N 03:30:37 89° NNE 03:37:46 10° SE
COSMO-SKYMED 1 4.1 03:27:43 10° SE 03:30:47 34° E 03:30:47 34° E
Timation 1 Rocket 4.4 03:38:32 75° NE 03:38:32 75° NE 03:44:04 10° NE
Cosmos 1386 Rocket 4.4 03:43:35 85° WSW 03:43:42 87° W 03:50:03 10° NNE
ALOS 2.9 03:47:09 10° NNE 03:51:46 54° E 03:53:17 38° SSE
Cosmos 2082 4.3 03:54:59 45° N 03:54:59 45° N 03:59:25 10° NNE
Cosmos 2227 Rocket 3.3 03:57:14 32° N 03:57:14 32° N 04:01:01 10° NNE
USA 229 DEB 4.2 03:54:54 42° NNW 03:56:13 47° N 04:03:16 10° ENE
USA 229 4.2 03:54:59 42° NNW 03:56:18 47° N 04:03:21 10° ENE
Cosmos 2344 4.1 03:53:01 44° WNW 03:56:42 82° SW 04:08:52 10° SE
CENTAUR R/B 3.9 04:01:35 34° SW 04:01:35 34° SW 04:07:42 10° S
USA 305 3.6 04:02:46 51° ESE 04:02:46 51° ESE 04:06:09 10° E
Cosmos 2227 4.2 04:01:36 56° SSW 04:02:49 77° ESE 04:08:28 10° NE
ARGOS Delta rocket 4.0 03:57:35 10° NNE 04:02:51 78° ESE 04:04:43 39° S
NOSS 3-4 (A) 4.1 04:00:50 27° SSW 04:03:58 52° SE 04:10:11 10° NE
NOSS 3-4 (C) 4.1 04:00:54 26° SSW 04:04:05 52° SE 04:10:19 10° NE
Meteor 1-31 Rocket 3.8 04:00:46 10° NNE 04:04:30 44° E 04:05:09 40° SE
Cosmos 1812 4.3 04:07:44 27° NNE 04:09:03 34° ENE 04:12:36 10° SE
Cosmos 2228 Rocket 4.4 04:05:58 16° N 04:09:04 38° ENE 04:13:12 10° SE
Cosmos 2219 4.4 04:10:17 29° NNW 04:10:17 29° NNW 04:14:26 10° NNE
NOSS 3-1 (C) 4.3 04:07:27 39° NNW 04:09:24 48° N 04:16:54 10° E
Cosmos 1515 Rocket 3.8 04:09:36 62° NNE 04:10:08 69° ENE 04:14:35 10° SSE
NOSS 3-1 (A) 4.2 04:08:34 40° NNW 04:10:13 47° N 04:17:33 10° ENE
USA 306 3.3 04:10:52 59° SE 04:10:52 59° SE 04:14:34 10° E
SL-4 R/B 3.0 04:15:03 38° SE 04:15:03 38° SE 04:17:59 10° ESE
Cosmos 1782 4.2 04:16:34 31° SSE 04:16:34 31° SSE 04:18:44 10° S
Cosmos 1777 Rocket 3.9 04:16:44 68° NW 04:16:44 68° NW 04:21:49 10° NNE
PSLV R/B 4.0 04:15:01 10° SSE 04:19:07 73° ENE 04:19:24 69° NE
SKYMED 2 3.5 04:15:23 10° SSE 04:19:24 76° S 04:19:24 76° S
Cosmos 1680 Rocket 3.5 04:20:03 62° SW 04:20:03 62° SW 04:25:06 10° SSE
Cosmos 1844 Rocket 4.5 04:15:24 10° SSE 04:20:18 31° ESE 04:25:14 10° NE
ATLAS 2AS CENTAUR R/B 3.5 04:15:59 10° SSW 04:23:47 61° SE 04:31:25 10° NE
FALCON 9 DEB 4.2 04:26:37 42° SE 04:26:37 42° SE 04:29:17 10° ESE
Cosmos 2297 Rocket 3.4 04:30:30 26° NNW 04:30:30 26° NNW 04:34:59 10° NNE
ATLAS CENTAUR R/B 2.2 04:32:06 35° S 04:32:06 35° S 04:34:41 10° SSE
ATLAS 5 CENTAUR R/B 1.7 04:31:19 80° NNE 04:31:19 80° NNE 04:33:39 10° ENE
ADEOS 3.5 04:26:20 10° NNE 04:31:37 88° WNW 04:36:51 10° SSW
NOSS 2-2 (C) 4.3 04:31:55 38° N 04:31:55 38° N 04:36:12 10° NE
CZ-4B R/B 3.8 04:28:46 10° NNE 04:31:58 65° NNE 04:31:58 65° NNE
RESURS DK-1 4.1 04:30:26 10° S 04:34:11 33° ESE 04:37:57 10° NE
Meteor 2-6 Rocket 4.1 04:29:49 12° NNW 04:34:48 82° ENE 04:40:14 10° SSE
CRYOSAT 2 4.2 04:30:10 10° S 04:35:01 75° W 04:39:56 10° N
Lacrosse 5 3.0 04:32:03 19° SSW 04:35:11 41° SE 04:39:56 10° ENE
CZ-2C R/B 3.8 04:32:23 10° N 04:34:19 22° N 04:34:19 22° N
H-2A R/B 4.5 04:34:01 10° NNE 04:37:39 34° E 04:41:14 10° SSE
ERBS 2.7 04:38:12 60° E 04:38:12 60° E 04:41:01 10° ENE
Cosmos 1437 Rocket 3.7 04:36:35 20° N 04:38:53 45° ENE 04:42:32 10° SE
Cosmos 2112 Rocket 4.1 04:38:53 49° W 04:39:35 52° WSW 04:44:45 10° S
Cosmos 1745 Rocket 4.4 04:44:18 38° WNW 04:44:50 39° WNW 04:50:47 10° N
Cosmos 2263 Rocket 2.2 04:43:11 36° WSW 04:45:30 64° NW 04:51:13 10° NNE
Nadezhda 3 Rocket 4.1 04:40:45 10° N 04:47:07 76° ENE 04:53:22 10° SSE
SJ 16-02 1.2 04:45:52 33° SW 04:47:47 76° WNW 04:52:16 10° NNE
Cosmos 1898 Rocket 3.9 04:50:09 10° SSW 04:55:25 66° ESE 05:00:44 10° NNE
FENGYUN 3A 3.7 04:51:08 10° N 04:56:26 55° WNW 05:01:42 10° SW
Envisat 4.3 04:51:55 10° NNE 04:56:46 41° E 05:01:33 10° SSE
CZ-2C R/B 3.5 04:52:27 10° SE 04:57:41 49° ENE 05:02:49 10° N
Cosmos 1766 Rocket 3.8 04:58:03 40° WSW 04:58:55 45° WNW 05:03:15 10° N
H-2A R/B 4.2 04:56:48 10° NNE 05:00:18 31° E 05:03:44 10° SSE
Cosmos 2181 Rocket 4.3 04:55:51 10° NNW 05:01:36 40° W 05:07:15 10° SSW
Cosmos 2082 Rocket 3.2 04:57:54 15° NNW 05:02:15 41° NE 05:07:39 10° ESE
Cosmos 1743 Rocket 3.7 04:58:21 10° S 05:02:48 75° E 05:07:18 10° NNE
Cosmos 1408 Rocket 3.5 05:00:25 10° SSW 05:04:50 64° WNW 05:09:17 10° N
USA 307 3.1 05:05:08 37° WSW 05:06:39 63° S 05:10:56 10° ESE
Okean 3 Rocket 4.0 05:07:16 37° WNW 05:07:20 37° WNW 05:11:29 10° N
COSMO-SKYMED 1 3.1 05:03:59 10° SSW 05:07:59 35° W 05:07:59 35° W
Cosmos 1709 Rocket 4.3 05:03:59 10° SW 05:10:00 42° WNW 05:16:03 10° N
Cosmos 1937 Rocket 3.8 05:07:22 10° SSW 05:12:29 67° ESE 05:17:40 10° NNE
Cosmos 1833 Rocket 3.0 05:08:14 16° NNW 05:12:43 65° NE 05:18:18 10° SE
USA 308 3.1 05:11:14 33° WSW 05:12:59 62° S 05:17:14 10° ESE
CZ-4B R/B 3.0 05:10:41 10° NNE 05:15:12 70° WNW 05:19:38 10° SSW
Meteor 1-27 Rocket 3.8 05:10:31 10° NNW 05:16:18 88° ENE 05:22:09 10° SSE
Meteor 2-3 Rocket 3.9 05:11:36 10° SW 05:17:10 48° WNW 05:22:48 10° N
CZ-4C R/B 2.5 05:12:52 10° SW 05:18:02 69° SE 05:24:22 10° NE
Meteor 1-10 Rocket 4.2 05:12:49 10° NNW 05:18:18 62° W 05:23:48 10° S
MOS 1 Rocket 3.4 05:13:25 10° S 05:18:18 64° W 05:23:31 10° NNW
Cosmos 2154 Rocket 4.1 05:12:35 10° S 05:18:49 81° E 05:25:09 10° NNE
Cosmos 494 Rocket 4.4 05:15:41 12° NNW 05:20:29 60° ENE 05:25:35 10° SE
ATLAS 3B R/B 3.5 05:17:51 24° WNW 05:20:47 33° WSW 05:26:58 10° S
Cosmos 1805 Rocket 4.1 05:17:36 10° S 05:22:00 63° E 05:26:26 10° NNE
COSMOS 2406 3.3 05:18:04 16° NNW 05:22:48 84° NE 05:28:34 10° SE
SL-19 R/B 4.5 05:20:52 10° NNE 05:24:55 74° WNW 05:29:35 10° SSW
Cosmos 1048 Rocket 4.0 05:20:19 13° NNW 05:25:05 85° ENE 05:30:20 10° SSE
YAOGAN 6 3.0 05:22:31 10° NNE 05:26:01 63° ESE 05:29:29 10° S
Aureole 2 Rocket 3.1 05:23:44 10° S 05:26:09 39° ESE 05:28:36 10° NE
deb Chang Zheng 4 4.0 05:24:53 10° N 05:28:56 39° WNW 05:32:58 10° SW
ALOS 3.1 05:24:57 10° N 05:28:59 29° WNW 05:31:45 17° WSW
Cosmos 1862 3.2 05:25:29 10° SSW 05:29:32 73° WNW 05:33:37 10° N
Genesis I 3.6 05:26:52 10° SW 05:30:39 62° SE 05:34:29 10° NE
DMSP B5D2-2 4.4 05:28:17 10° SSE 05:33:28 69° ENE 05:38:41 10° NNW
PSLV R/B 3.7 05:30:54 10° NNE 05:34:51 87° WNW 05:38:40 10° SSW
Cosmos 858 Rocket 4.5 05:31:32 10° SSW 05:36:47 87° WNW 05:42:05 10° NNE
ASTRO F (AKARI) 4.1 05:33:48 10° N 05:36:54 65° WNW 05:39:59 10° SSW
Cosmos 990 Rocket 4.0 05:32:58 10° SW 05:38:10 62° WNW 05:43:26 10° NNE
Cosmos 2327 Rocket 4.4 05:32:09 10° SSW 05:38:15 77° WNW 05:44:23 10° N
Meteor 1-31 Rocket 3.7 05:35:30 10° N 05:38:43 26° WNW 05:40:29 18° W
Cosmos 2074 Rocket 4.0 05:33:41 10° SSW 05:39:46 56° WNW 05:45:54 10° N
Cosmos 2227 Rocket 3.7 05:39:03 15° NW 05:41:26 19° NNW 05:45:29 10° NNE
USA 305 3.4 05:38:55 20° W 05:41:41 53° SSW 05:45:52 10° ESE
Cosmos 1812 3.6 05:42:51 19° NW 05:44:46 29° W 05:48:06 10° SSW
Cosmos 405 Rocket 2.6 05:41:42 10° SSW 05:45:22 58° WNW 05:49:08 10° N
SL-24 DEB 4.3 05:40:51 10° S 05:45:34 62° W 05:50:22 10° N
Cosmos 2228 Rocket 3.8 05:43:30 11° NNW 05:47:14 33° W 05:51:10 10° SSW
USA 229 DEB 4.1 05:42:20 16° NW 05:48:13 66° NNE 05:55:43 10° ESE
USA 229 4.1 05:42:25 16° NW 05:48:19 66° NNE 05:55:48 10° ESE
EO 1 Delta rocket 4.5 05:45:01 10° SSW 05:49:23 33° W 05:53:35 10° NNW
USA 306 3.5 05:47:01 17° W 05:50:04 50° SSW 05:54:14 10° SE
Cosmos 1295 Rocket 4.4 05:45:07 10° SSW 05:51:12 78° WNW 05:57:21 10° N
Cosmos 909 Rocket 4.5 05:46:27 13° NW 05:52:03 58° NNE 05:58:24 10° ESE
SL-4 R/B 2.8 05:50:37 14° WSW 05:53:36 37° SSW 05:56:59 10° SE
NOSS 3-4 (A) 3.6 05:48:47 10° WSW 05:54:49 63° NNW 06:01:30 10° NE
NOSS 3-4 (C) 3.6 05:48:54 10° WSW 05:54:57 63° NNW 06:01:37 10° NE
Cosmos 1633 Rocket 3.8 05:51:13 10° S 05:55:33 57° E 05:59:55 10° NNE
Spot 2 4.5 05:51:53 10° NNE 05:57:02 70° WNW 06:02:07 10° SSW
Cosmos 2184 Rocket 4.3 05:51:22 10° SW 05:57:26 46° WNW 06:03:36 10° N
USA-17 4.5 05:54:10 10° SW 05:57:30 71° SE 06:00:32 10° NE
FALCON 9 DEB 4.2 05:57:34 10° WSW 06:00:37 39° SSE 06:03:39 10° E
Cosmos 1356 3.6 05:57:34 10° S 06:00:58 75° ESE 06:04:24 10° NNE
NOSS 3-1 (C) 4.0 05:54:50 13° NW 06:01:10 79° NE 06:09:28 10° ESE
NOSS 3-1 (A) 4.1 05:56:00 13° NW 06:02:12 67° NNE 06:10:20 10° ESE
FALCON 9 DEB 4.3 05:59:52 13° W 06:02:34 35° SSW 06:05:45 10° SE
Cosmos 1515 4.3 05:59:57 10° N 06:03:45 59° ENE 06:07:31 10° SSE
Cosmos 1844 Rocket 2.7 05:58:13 10° SW 06:03:52 67° NW 06:09:33 10° NNE
Cosmos 1707 Rocket 3.7 06:00:10 10° NNW 06:04:23 50° W 06:08:34 10° S
MOS 1-B 4.3 06:00:03 10° NNE 06:05:55 81° WNW 06:11:44 10° SSW
NOAA 6 4.0 06:04:01 10° NNE 06:09:07 68° WNW 06:14:11 10° SSW
H-2A R/B 3.5 06:08:16 10° N 06:11:48 32° WNW 06:15:17 10° SW
COSMOS 2455 3.2 06:05:59 10° SSW 06:11:59 73° SE 06:18:02 10° NE
RESURS DK-1 2.7 06:08:06 10° WSW 06:12:08 46° NW 06:16:11 10° NNE
USA 290 2.5 06:10:29 10° NNW 06:13:48 71° ENE 06:17:04 10° SE
ERBS 2.2 06:11:05 13° W 06:14:01 73° N 06:17:20 10° E
CZ-4B DEB 4.2 06:08:49 10° NNE 06:14:13 64° WNW 06:19:37 10° SW
EP 3 3.2 06:12:43 10° SW 06:14:38 82° NW 06:16:34 10° NE
CZ-2C R/B 4.4 06:09:58 10° SSE 06:14:41 61° ENE 06:19:24 10° N
Cosmos 1437 Rocket 4.0 06:12:01 10° NW 06:14:53 22° W 06:17:50 10° SW
ATLAS 2AS CENTAUR R/B 3.1 06:07:02 10° WSW 06:14:58 65° NNW 06:22:36 10° NE
Okean 1-7 4.0 06:12:01 10° N 06:16:13 48° ENE 06:20:24 10° SSE
Cosmos 2297 Rocket 3.9 06:12:27 10° NW 06:16:15 18° N 06:20:04 10° NE
Cosmos 1500 Rocket 4.4 06:13:11 10° SW 06:16:56 28° WNW 06:20:43 10° N
Cosmos 1844 3.7 06:12:14 10° SW 06:17:46 66° NW 06:23:22 10° NNE
Lacrosse 5 1.9 06:12:48 10° WSW 06:17:55 89° SSE 06:23:00 10° ENE
Okean O Rocket 1.6 06:13:28 10° NNE 06:17:57 83° WNW 06:22:25 10° SSW
Cosmos 1242 Rocket 2.6 06:16:33 10° NNW 06:20:10 63° W 06:23:47 10° S
PAYLOAD B 4.2 06:15:10 10° NNE 06:20:41 68° WNW 06:26:08 10° SSW
Cosmos 1703 Rocket 4.2 06:16:43 10° N 06:21:03 57° ENE 06:25:18 10° SSE
Cosmos 372 Rocket 3.9 06:16:06 10° SW 06:21:11 74° WNW 06:26:20 10° NNE
SMAP 3.0 06:16:57 10° NNE 06:21:38 71° WNW 06:26:16 10° SSW
Geosat 4.5 06:18:51 10° S 06:23:39 45° WSW 06:28:30 10° NW
SJ 16-02 2.8 06:24:03 10° W 06:27:10 18° NW 06:30:17 10° N
USA 81 4.1 06:21:57 10° SSW 06:27:10 62° WNW 06:32:25 10° N
Cosmos 2263 Rocket 3.3 06:25:52 10° W 06:30:32 25° NNW 06:35:12 10° NNE
FALCON 9 DEB 4.0 06:30:45 10° WSW 06:33:52 46° S 06:36:58 10° E
FALCON 9 DEB 3.9 06:30:48 10° WSW 06:33:55 46° S 06:37:02 10° E
ATLAS 5 CENTAUR R/B 3.0 06:30:10 10° SSW 06:34:08 44° SE 06:38:40 10° ENE
AQUARIUS 4.2 06:30:56 10° N 06:35:22 59° WNW 06:39:47 10° SSW
Cosmos 1470 Rocket 3.8 06:31:12 10° S 06:35:36 79° E 06:39:59 10° NNE
Envisat 3.4 06:31:04 10° N 06:35:49 41° WNW 06:40:33 10° SW
H-2A R/B 2.9 06:32:17 10° N 06:35:50 35° WNW 06:39:20 10° SW
Sich 1 3.5 06:33:18 10° SW 06:37:30 39° WNW 06:41:42 10° N
Cosmos 2218 Rocket 4.0 06:31:26 10° SSW 06:37:41 80° WNW 06:43:55 10° N
Cosmos 1898 Rocket 4.2 06:33:08 10° WSW 06:37:56 32° NW 06:42:45 10° NNE
CZ-2C R/B 3.3 06:33:07 10° SSW 06:38:09 37° W 06:43:07 10° NNW
Cosmos 1437 4.4 06:36:59 10° N 06:39:38 28° ENE 06:42:15 10° SE
Cosmos 2251 Rocket 4.3 06:34:50 10° NNW 06:39:56 48° NE 06:45:00 10° SE
CORIOLIS 4.2 06:35:15 10° NNE 06:40:41 70° WNW 06:46:06 10° SSW
Cosmos 2366 rocket 4.0 06:35:45 10° SSW 06:42:05 78° WNW 06:48:23 10° N
